Regional Weather Roundup
Issued by NWS

Home | Current Version | Previous Version | Text Only | Print | Product List | Glossary On
Versions: 1 2 3 4 5 6 7 8 9 10 11 12 13 14 15 16 17 18 19 20 21 22 23 24 25 26 27 28 29 30 31 32 33 34 35 36 37 38 39 40 41 42 43 44 45 46 47 48 49 50
000
ASUS44 KMEG 190210
RWRTN
TENNESSEE HOURLY STATE WEATHER ROUNDUP
NATIONAL WEATHER SERVICE MEMPHIS TN
900 PM CDT WED OCT 18 2017

TNZ002-004-019-021-049-052-054-088>092-190300-
WEST TENNESSEE

CITY           SKY/WX    TMP DP  RH WIND       PRES   REMARKS
MEMPHIS INTL   CLEAR     61  48  62 S3        30.19S
NWS MEMPHIS      N/A     57 N/A N/A MISG        N/A
JACKSON        CLEAR     50  48  93 SE3       30.21S
SOMERVILLE     CLEAR     55  50  82 CALM      30.19S
COVINGTON      CLEAR     54  48  82 CALM      30.20R
UNION CITY     CLEAR     54  46  76 S6        30.19S
BOLIVAR        CLEAR     50  48  93 CALM      30.21S
PARIS          CLEAR     55  46  71 S8        30.19F
HUNTINGDON     CLEAR     52  48  87 CALM      30.20S
LEXINGTON      MOCLDY    50  50 100 CALM      30.22R
SELMER         CLEAR     57  48  72 S5        30.22R
SAVANNAH       CLEAR     50  50 100 CALM      30.22S
$$

TNZ008-025-027-028-033-062-065-066-190300-
NORTH MIDDLE TENNESSEE

CITY           SKY/WX    TMP DP  RH WIND       PRES   REMARKS
NASHVILLE      CLEAR     56  46  69 S6        30.24S
PORTLAND       CLEAR     50  48  93 S3        30.23S FOG
CLARKSVILLE    CLEAR     52  47  83 SE3       30.22S
SMYRNA         CLEAR     51  46  83 CALM      30.25S
COOKEVILLE     CLEAR     45  43  93 CALM      30.26R
GALLATIN       CLEAR     50  45  81 CALM      30.26S
CROSSVILLE     CLEAR     48  43  82 CALM      30.29S
$$

TNZ061-075-076-078-094-096-097-190300-
SOUTH MIDDLE TENNESSEE

CITY           SKY/WX    TMP DP  RH WIND       PRES   REMARKS
FAYETTEVILLE   CLEAR     55  46  71 S3        30.26R
TULLAHOMA      CLEAR     48  45  87 CALM      30.27S
WINCHESTER     CLEAR     48  46  93 CALM        N/A
COLUMBIA       CLEAR     52  46  82 CALM      30.23R
SHELBYVILLE    CLEAR     50  46  87 E3        30.25S
$$

TNZ017-018-042-046-047-190300-
NORTHEAST TENNESSEE

CITY           SKY/WX    TMP DP  RH WIND       PRES   REMARKS
TRI CITIES     CLOUDY    51  46  83 CALM      30.29S
ELIZABETHTON   CLEAR     50  46  87 CALM      30.31R
$$

TNZ012-013-036-069-073-074-190300-
CENTRAL EAST TENNESSEE

CITY           SKY/WX    TMP DP  RH WIND       PRES   REMARKS
KNOXVILLE      PTCLDY    58  49  72 CALM      30.27R
OAK RIDGE      CLEAR     52  51  97 CALM      30.30R
DOWNTOWN KNOXV CLEAR     52  52 100 CALM      30.28R
GATLINBURG     CLEAR     54  48  82 CALM      30.28S
MORRISTOWN     CLEAR     55  46  71 CALM      30.28R
JACKSBORO      CLEAR     50  50 100 CALM      30.32S
$$

TNZ083-085-099-190300-
SOUTHEAST TENNESSEE

CITY           SKY/WX    TMP DP  RH WIND       PRES   REMARKS
CHATTANOOGA    CLEAR     55  49  80 CALM      30.29R
DAYTON         CLEAR     50  50 100 CALM      30.27S
$$

SKY/WX REPORTED AS FAIR MEANS FEW OR NO CLOUDS BELOW
12 THOUSAND FEET.





USA.gov is the U.S. government's official web portal to all federal, state and local government web resources and services.